Location: Brightside
(37.5991°N, 121.9244°W)
Time: 13:51:59
(UTC+00:00)

Daily predictions for brighter satellites

Satellite Brightness Start Highest point End
(mag) Time Altitude Azimuth Time Altitude Azimuth Time Altitude Azimuth
Cosmos 2061 Rocket 4.2 12:00:28 10° N 12:06:53 81° E 12:13:10 10° S
Cosmos 2263 Rocket 2.2 12:02:27 10° NNW 12:08:02 68° WSW 12:13:35 10° S
AQUA 3.8 12:04:44 10° N 12:09:25 76° WNW 12:14:04 10° SSW
